When you browse on this site, cookies collect data to enhance your experience and personalize the content and advertising you see.
Visit our Privacy Policy to learn more. By continuing to use the site, you agree to this use of cookies and data.

Hourly Weather Guadalajara

Today, 9 July, Thursday

Time Temperature Precipitation Wind Pressure Humidity
00:00 +23°C° 0 mm 2 mps 701 mmHg 62%
01:00 +23°C° 0.6 mm 2 mps 701 mmHg 63%
02:00 +21°C° 0.6 mm 3 mps 701 mmHg 65%
03:00 +21°C° 0.6 mm 3 mps 701 mmHg 66%
04:00 +21°C° 0.1 mm 3 mps 701 mmHg 67%
05:00 +21°C° 0.1 mm 2 mps 701 mmHg 67%
06:00 +21°C° 0.1 mm 2 mps 701 mmHg 68%
07:00 +24°C° 0 mm 2 mps 702 mmHg 58%
08:00 +26°C° 0 mm 2 mps 702 mmHg 47%
09:00 +28°C° 0 mm 3 mps 702 mmHg 37%
10:00 +30°C° 0 mm 2 mps 702 mmHg 32%
11:00 +31°C° 0 mm 2 mps 702 mmHg 27%
12:00 +33°C° 0 mm 1 mps 702 mmHg 22%
13:00 +34°C° 0.1 mm 2 mps 702 mmHg 23%
14:00 +34°C° 0.1 mm 3 mps 702 mmHg 24%
15:00 +34°C° 0.1 mm 4 mps 701 mmHg 25%
16:00 +30°C° 0.1 mm 5 mps 701 mmHg 34%
17:00 +28°C° 0.1 mm 6 mps 701 mmHg 43%
18:00 +26°C° 0.1 mm 7 mps 700 mmHg 52%
19:00 +24°C° 0.2 mm 6 mps 701 mmHg 55%
20:00 +22°C° 0.2 mm 5 mps 701 mmHg 58%
21:00 +21°C° 0.2 mm 4 mps 701 mmHg 60%
22:00 +21°C° 0 mm 3 mps 701 mmHg 62%
23:00 +20°C° 0 mm 2 mps 701 mmHg 64%

Tomorrow, 10 July, Friday

Time Temperature Precipitation Wind Pressure Humidity
00:00 +21°C° 0 mm 1 mps 701 mmHg 66%
01:00 +21°C° 0 mm 1 mps 701 mmHg 66%
02:00 +21°C° 0 mm 1 mps 701 mmHg 65%
03:00 +21°C° 0 mm 1 mps 701 mmHg 65%
04:00 +21°C° 0 mm 1 mps 701 mmHg 65%
05:00 +21°C° 0 mm 1 mps 701 mmHg 65%
06:00 +20°C° 0 mm 2 mps 701 mmHg 65%
07:00 +23°C° 0 mm 1 mps 701 mmHg 57%
08:00 +25°C° 0 mm 1 mps 701 mmHg 49%
09:00 +27°C° 0 mm 1 mps 701 mmHg 41%
10:00 +29°C° 0 mm 1 mps 701 mmHg 38%
11:00 +30°C° 0 mm 1 mps 701 mmHg 34%
12:00 +32°C° 0 mm 1 mps 701 mmHg 30%
13:00 +32°C° 0 mm 1 mps 701 mmHg 29%
14:00 +32°C° 0 mm 2 mps 701 mmHg 28%
15:00 +34°C° 0 mm 2 mps 700 mmHg 27%
16:00 +34°C° 0 mm 2 mps 700 mmHg 28%
17:00 +32°C° 0 mm 2 mps 700 mmHg 29%
18:00 +32°C° 0 mm 2 mps 700 mmHg 30%
19:00 +30°C° 0 mm 3 mps 701 mmHg 36%
20:00 +29°C° 0 mm 4 mps 701 mmHg 43%
21:00 +27°C° 0 mm 5 mps 701 mmHg 50%
22:00 +26°C° 0 mm 4 mps 701 mmHg 53%
23:00 +25°C° 0 mm 4 mps 701 mmHg 56%

Day after tomorrow, 11 July, Saturday

Time Temperature Precipitation Wind Pressure Humidity
00:00 +24°C° 0 mm 3 mps 701 mmHg 60%
01:00 +24°C° 0 mm 3 mps 701 mmHg 62%
02:00 +22°C° 0 mm 3 mps 701 mmHg 65%
03:00 +21°C° 0 mm 3 mps 701 mmHg 67%
04:00 +21°C° 0 mm 3 mps 701 mmHg 67%
05:00 +21°C° 0 mm 3 mps 701 mmHg 67%
06:00 +21°C° 0 mm 3 mps 701 mmHg 67%
07:00 +24°C° 0 mm 3 mps 702 mmHg 58%
08:00 +27°C° 0 mm 2 mps 702 mmHg 49%
09:00 +29°C° 0 mm 2 mps 703 mmHg 39%
10:00 +31°C° 0 mm 2 mps 703 mmHg 35%
11:00 +33°C° 0 mm 3 mps 703 mmHg 30%
12:00 +35°C° 0 mm 3 mps 703 mmHg 26%
13:00 +36°C° 0 mm 3 mps 702 mmHg 24%
14:00 +36°C° 0 mm 3 mps 702 mmHg 22%
15:00 +37°C° 0 mm 3 mps 702 mmHg 20%
16:00 +37°C° 0 mm 2 mps 702 mmHg 21%
17:00 +36°C° 0 mm 2 mps 702 mmHg 21%
18:00 +36°C° 0 mm 2 mps 701 mmHg 21%
19:00 +34°C° 0 mm 3 mps 702 mmHg 29%
20:00 +30°C° 0 mm 4 mps 702 mmHg 36%
21:00 +28°C° 0 mm 5 mps 702 mmHg 43%
22:00 +27°C° 0 mm 5 mps 702 mmHg 48%
23:00 +26°C° 0 mm 4 mps 702 mmHg 53%

12 July, Sunday

Time Temperature Precipitation Wind Pressure Humidity
00:00 +25°C° 0 mm 3 mps 701 mmHg 58%
01:00 +24°C° 0 mm 2 mps 701 mmHg 61%
02:00 +24°C° 0 mm 2 mps 701 mmHg 63%
03:00 +23°C° 0 mm 1 mps 701 mmHg 66%
04:00 +23°C° 0 mm 1 mps 701 mmHg 65%
05:00 +24°C° 0 mm 2 mps 701 mmHg 65%
06:00 +24°C° 0 mm 3 mps 702 mmHg 64%
07:00 +26°C° 0 mm 3 mps 702 mmHg 55%
08:00 +27°C° 0 mm 3 mps 702 mmHg 47%
09:00 +29°C° 0 mm 4 mps 702 mmHg 39%
10:00 +32°C° 0 mm 4 mps 702 mmHg 34%
11:00 +34°C° 0 mm 4 mps 702 mmHg 30%
12:00 +35°C° 0 mm 4 mps 702 mmHg 25%
13:00 +36°C° 0 mm 4 mps 702 mmHg 24%
14:00 +36°C° 0 mm 5 mps 702 mmHg 23%
15:00 +38°C° 0 mm 6 mps 701 mmHg 22%
16:00 +33°C° 1.6 mm 6 mps 701 mmHg 34%
17:00 +28°C° 1.6 mm 7 mps 701 mmHg 46%
18:00 +24°C° 1.6 mm 7 mps 701 mmHg 58%
19:00 +23°C° 0.7 mm 6 mps 701 mmHg 58%
20:00 +23°C° 0.7 mm 6 mps 702 mmHg 58%
21:00 +23°C° 0.7 mm 5 mps 702 mmHg 59%
22:00 +23°C° 0.2 mm 4 mps 702 mmHg 60%
23:00 +22°C° 0.2 mm 4 mps 702 mmHg 61%

13 July, Monday

Time Temperature Precipitation Wind Pressure Humidity
00:00 +22°C° 0.2 mm 4 mps 702 mmHg 62%
01:00 +21°C° 0.1 mm 3 mps 702 mmHg 64%
02:00 +21°C° 0.1 mm 2 mps 702 mmHg 66%
03:00 +21°C° 0.1 mm 2 mps 701 mmHg 68%
04:00 +21°C° 0.1 mm 2 mps 702 mmHg 68%
05:00 +21°C° 0.1 mm 2 mps 702 mmHg 68%
06:00 +21°C° 0.1 mm 2 mps 702 mmHg 68%
07:00 +24°C° 0 mm 2 mps 702 mmHg 60%
08:00 +26°C° 0 mm 2 mps 702 mmHg 52%
09:00 +27°C° 0 mm 2 mps 702 mmHg 44%
10:00 +29°C° 0 mm 3 mps 702 mmHg 40%
11:00 +31°C° 0 mm 3 mps 702 mmHg 36%
12:00 +33°C° 0 mm 3 mps 702 mmHg 31%
13:00 +34°C° 0 mm 3 mps 702 mmHg 29%
14:00 +35°C° 0 mm 3 mps 701 mmHg 26%
15:00 +36°C° 0 mm 3 mps 701 mmHg 23%
16:00 +35°C° 0 mm 3 mps 701 mmHg 25%
17:00 +34°C° 0 mm 4 mps 701 mmHg 28%
18:00 +33°C° 0 mm 4 mps 701 mmHg 30%
19:00 +30°C° 0 mm 5 mps 701 mmHg 37%
20:00 +28°C° 0 mm 5 mps 701 mmHg 44%
21:00 +26°C° 0 mm 6 mps 701 mmHg 52%
22:00 +25°C° 0 mm 5 mps 701 mmHg 55%
23:00 +25°C° 0 mm 3 mps 701 mmHg 59%

14 July, Tuesday

Time Temperature Precipitation Wind Pressure Humidity
00:00 +24°C° 0 mm 2 mps 700 mmHg 62%
01:00 +24°C° 0.3 mm 2 mps 700 mmHg 65%
02:00 +23°C° 0.3 mm 2 mps 700 mmHg 69%
03:00 +22°C° 0.3 mm 1 mps 699 mmHg 72%
04:00 +21°C° 0.2 mm 2 mps 700 mmHg 72%
05:00 +21°C° 0.2 mm 2 mps 700 mmHg 72%
06:00 +21°C° 0.2 mm 2 mps 700 mmHg 72%
07:00 +24°C° 0 mm 2 mps 700 mmHg 64%
08:00 +26°C° 0 mm 2 mps 700 mmHg 57%
09:00 +27°C° 0 mm 2 mps 700 mmHg 49%
10:00 +29°C° 0.1 mm 2 mps 700 mmHg 44%
11:00 +30°C° 0.1 mm 2 mps 700 mmHg 39%
12:00 +32°C° 0.1 mm 1 mps 699 mmHg 35%
13:00 +32°C° 0.1 mm 2 mps 699 mmHg 34%
14:00 +32°C° 0.1 mm 2 mps 699 mmHg 33%
15:00 +33°C° 0.1 mm 3 mps 698 mmHg 32%
16:00 +28°C° 3.1 mm 3 mps 698 mmHg 47%
17:00 +25°C° 3.1 mm 3 mps 698 mmHg 62%
18:00 +20°C° 3.1 mm 3 mps 697 mmHg 77%
19:00 +20°C° 2.5 mm 3 mps 698 mmHg 79%
20:00 +20°C° 2.5 mm 3 mps 698 mmHg 81%
21:00 +20°C° 2.5 mm 3 mps 699 mmHg 83%
22:00 +20°C° 0.7 mm 3 mps 699 mmHg 83%
23:00 +20°C° 0.7 mm 4 mps 699 mmHg 83%
Show more